Погода в Архаре

Погода в Архаре : погода сейчас, прогноз погоды и архив. Всё, что Вы хотите узнать о погоде в Архаре!

Хотите узнать прогноз погоды в Архаре? Тогда Вам сюда: Погода в Архаре

Поиск расширенной информации на нашем сайте:

Другие новости

Новости СМИ2

Главная страница сайта

Новости сайта

03.07.2017

Напоминаем, что на нашем специализированном сайте Метеоцентр.Азия вы можете получить высокодетализированные автоматические прогнозы погоды по пунктам России, СНГ и мира в авиационном формате (включающие направление и скорость ветра, видимость, явления погоды, количество и форму облачности, нижнюю и верхнюю границу облачности).

Рекомендуем: Описание офигенное радио на нашем сайте.

Погода в Архаре - сегодня

Время (UTC), дата Ветер
(°,м/с) 
Видим.   Явления Облачность Т
(°С)
Тd
(°С)
f(%) Тe
(°С)
Pmin
(гПа)
dP
(гПа)
Po
(мм)
O2
(г/м3)
Тmin Tmax R s Состояние
почвы
12 20.08.17 тихо ()   20000 м    10/0 средняя, верхняя 
[Ac trans|Ci fib]
+19.5 +17.8 90 +34  1008.2  -0.3  744  276    +29.8       
15 20.08.17 110 (В) 20000 м    10/0 верхняя 
[Ci fib]
+22.7 +18 75 +37  1007.6  -0.4  744  273           
18 20.08.17 120 (ЮВ) 20000 м    4/0 верхняя 
[Ci fib]
+20.9 +17 78 +33  1007.2  -0.5  744  275           
21 20.08.17 110 (В) 20000 м    ясно 
+20.6 +16.3 76 +32  1007.1  -0.1  744  275           
00 21.08.17 130 (ЮВ) 20000 м    3/0 верхняя 
[Ci fib]
+25.1 +18.8 68 +41  1006.1  -0.8  743  270  +19.4        сухая 
03 21.08.17 150 (ЮВ) 20000 м    3/0 верхняя 
[Ci fib]
+28.9 +18.2 52 +44  1004.2  -1.6  742  266           
06 21.08.17 140 (ЮВ) 3{11}  20000 м    3/0 верхняя 
[Ci fib]
+30.1 +18.5 50 +46  1001.5  -2.6  740  264           
09 21.08.17 150 (ЮВ) 3{11}  20000 м    10/0 средняя, верхняя 
[Ac trans|Ci fib]
+27.4 +18 57 +42  1000.6  -1  739  267           
12 21.08.17 140 (ЮВ) 20000 м    10/0 средняя, верхняя 
[Ac trans|Ci fib]
+23.1 +17.7 72 +37  1001.3  0.5  739  271    +30.5       
15 21.08.17 310 (СЗ) 2{11}  4000 м  слаб. ливневой дождь  10/10 600 м кучево-дожд. 
[Cb cap]
+16.8 +15.7 93 +28  1004.8  3.1  742  278           
18 21.08.17 180 (Ю) 1{10}  20000 м  в посл. час гроза{ливн. осадки}  ясно 
+15.3 +14.3 94 +25  1002.7  -2.2  740  279           
21 21.08.17 140 (ЮВ) 0500 м  туман  ясно 
+16.3 +15.4 94 +27  1003.3  0.6  741  278           
00 22.08.17 210 (ЮЗ) 20000 м  {туман}  ясно 
+21.1 +16.5 75 +33  1004  741  274  +15.2    17    влажная 
03 22.08.17 240 (ЮЗ) 20000 м    ясно 
+24.9 +14.5 52 +33  1003.3  -0.5  741  271           
06 22.08.17 260 (З) 10 км    3/3 1000 м 
[Cu hum]
+26.4 +10.1 36 +28  1002.6  -0.7  740  270           
09 22.08.17 280 (З) 10 км    5/0 средняя 
[Ac trans]
+23.8 +14.1 55 +31  1003.3  0.6  741  272           
12 22.08.17 тихо ()   10 км    ясно 
+15.4 +12.9 85 +21  1004.8  742  280    +26.7       
15 22.08.17 120 (ЮВ) 10 км    10/0 средняя 
[Ac und]
+16.4 +12.7 79 +22  1004.8  0.1  742  279           
18 22.08.17 140 (ЮВ) 10 км    3/0 средняя 
[Ac trans]
+12.8 +11.5 92 +17  1005.4  0.3  742  283           
21 22.08.17 110 (В) 4000 м  дымка  3/0 средняя 
[Ac trans]
+12.9 +11.1 89 +17  1006  0.6  742  284           
00 23.08.17 180 (Ю) 4000 м  дымка  ясно 
+18.1 +13 72 +26  1006.2  0.4  743  278  +10.8        влажная 
03 23.08.17 230 (ЮЗ) 4000 м  дымка  3/0 верхняя 
[Ci fib]
+22.4 +13.7 58 +29  1004.6  -1.3  742  274           
06 23.08.17 260 (З) 10 км    10/4 1000 м кучево-дожд., средняя, верхняя 
[Cb cap|Ac trans|Cs]
+23.2 +13.3 54 +29  1003.6  -0.9  741  273           
09 23.08.17 тихо ()   10 км    10/3 1000 м кучево-дожд., средняя, верхняя 
[Cb cap|Ac trans|Ci fib]
+20.3 +15.3 73 +30  1003.3  -0.5  741  275           
12 23.08.17 тихо ()   10 км    10/5 600 м кучево-дожд., средняя, верхняя 
[Cb cap|Ac trans|Ci fib]
+16.2 +14.4 89 +24  1003.6  0.1  741  279    +24.6       
Время (UTC), дата Ветер
(°,м/с) 
Видим.   Явления Облачность Т
(°С)
Тd
(°С)
f(%) Тe
(°С)
Pmin
(гПа)
dP
(гПа)
Po
(мм)
O2
(г/м3)
Тmin Tmax R s Состояние
почвы

Для получения пояснительной информации подведите курсор к названию столбца.

ПОГОДА в Архаре - архив

Всё, что Вы хотите узнать о погоде в Архаре - удобно и подробно!

Выберите нужную дату (начиная с 1 января 2015* года) и нажмите кнопку "Найти".
Будут отображены архивные сводки погоды по пункту Архара, начиная с указанной даты.


Отображать данные в формате CSV (для использования в таблицах Excel)


Внимание! Наш архив погоды предназначен исключительно для личного некоммерческого использования в познавательных целях. Если Вам необходимы официальные справки о состоянии погоды (для производственных, юридических, коммерческих и т.п. целей), обращайтесь в органы Росгидромета.

*Примечание: данная дата относится к архиву по метеостанциям СССР (Россия, СНГ, Балтия).
Архив по метеостанциям Зарубежной Европы и Азии (кроме Китая) хранится 10 дней, по другим регионам земного шара (Китай, Африка, Америка, Австралия, Океания) - 1 день.

Архара - район местоположения метеостанции


Название, широта, долгота, высота метеостанции:
Архара 49.4°ш. 130.1°д. 135 м над ур. моря [Российская Федерация]

Дополнительная информация

В oтличие oт бoльшинства пoгoдных сайтoв мы публикуем пoдрoбную метеoинфoрмацию в детальнoм прoфессиoнальнoм фoрмате.

Характеристики температуры и влажнoсти вoздуха измеряются на высoте 2 м в тени вдали oт зданий и деревьев.
Скoрoсть ветра измеряется на высoте 10 м (на урoвне рoста челoвека скoрoсть ветра ниже в 1.5-2 раза). Если метеoстанция нахoдится в гoрoде или в лесу, тo скoрoсть ветра занижена на 2-4 м/с пo сравнению с oткрытым местoм. Скoрoсть ветра над акватoриями крупных рек и oзёр, а также на вершинах хoлмoв на 2-5 м/с выше, чем в oбычных услoвиях.
Атмoсфернoе давление в разных тoчках местнoсти мoжет значительнo oтличаться oт давления на метеoстанции, в зависимoсти oт услoвий рельефа (при пoдъёме на 10 м давление пoнижается примернo на 1 мм рт.ст.).